Погода в Ковде

Погода в Ковде : погода сейчас, прогноз погоды и архив. Всё, что Вы хотите узнать о погоде в Ковде!

Поиск расширенной информации на нашем сайте:

Другие новости

Новости СМИ2

Главная страница сайта

Новости сайта

02.10.2013

Напоминаем, что на нашем новом сайте вы можете получить высокодетализированные прогнозы погоды по пунктам России, СНГ и мира (включающие важные для авиации метеовеличины, такие как направление и скорость ветра, видимость, явления погоды, количество и форма облачности, нижняя и верхняя граница облачности), а также ознакомиться с разнообразными материалами по авиационной метеорологии и подборкой полезных ссылок на эту тему.

Сайт Метеоцентр.Азия посвящён разработке технологий оптимизации авиаметеорологического обслуживания, включая проектирование и перспективное создание нескольких автоматизированных авиаметеорологических систем:
- система выпуска высокодетальных прогностических карт явлений погоды для нижнего воздушного пространства по России и ближнему зарубежью;
- система верификации прогнозов TAF (выпускаемых синоптиками официальных АМСГ РФ и ближнего зарубежья) и AUTOTAF (выпускаемых сайтом Метеоцентр.Азия) - выявление ошибок, онлайн-сопоставление с фактической погодой METAR, автоматическое внесение коррективов в прогнозы при резком отклонении фактической погоды от прогноза, подсчёт оправдываемости прогнозов по элементам и в целом;
- система обработки, анализа и отображения авиаметеорологической информации для применения провайдерами метеорологической информации.

Рекомендуем: Организации National University of Ireland.

Погода в Ковде - сегодня

Время (UTC), дата Ветер
(°,м/с) 
Видим.   Явления Облачность Т
(°С)
Тd
(°С)
f(%) Тe
(°С)
Pmin
(гПа)
dP
(гПа)
Po
(мм)
O2
(г/м3)
Тmin Tmax R s Состояние
почвы
03 17.02.17 270 (З) 1-3  н/о    н/о 
-2.8 -4.8 86 -2  998.6  -1.7  747  305  -2.9         
06 17.02.17 180 (Ю) 1-1  4000 м  слаб. ливневой снег  10/10 300 м кучево-дожд. 
[Cb cap]
-3.2 -4.1 93 -3  996.5  -2  746  304  -3.2    0.6  43  неравномерный
сухой снег
100% 
09 17.02.17 170 (Ю) 1-1  4000 м  слаб. ливневой снег  10/10 300 м кучево-дожд. 
[Cb cap]
-2.2 -3.2 93 -2  994.4  -2.1  744  303           
12 17.02.17 200 (Ю) 1-2  2000 м  ливневой снег  10/10 300 м кучево-дожд. 
[Cb cap]
-1.4 -2.4 93 -1  992.2  -2.2  743  301           
15 17.02.17 тихо ()   4000 м  слаб. ливневой снег  10/10 300 м кучево-дожд. 
[Cb cap]
-1.6 -2.3 95 -2  990.4  -2.2  741  301         
18 17.02.17 310 (СЗ) 4-6  10 км  слаб. ливневой снег  10/10 300 м кучево-дожд. 
[Cb cap]
-2.3 -3.8 89 -5  990.7  0.3  741  302    -1.4     
21 17.02.17 320 (СЗ) 4-7{10}  н/о    н/о 
-3.7 -5.5 87 -7  992.4  1.6  743  304           
00 18.02.17 340 (С) 2-3  н/о    н/о 
-5.6 -8.2 82 -7  993.4  743  307           
03 18.02.17 240 (ЮЗ) 1-2  н/о    н/о 
-7.1 -8.3 91 -7  992.9  -0.5  743  308  -7.1         
06 18.02.17 300 (СЗ) 2-3  20000 м    8/6 600 м верхняя 
[Sc|Ci fib]
-7.7 -9 90 -9  993.2  0.2  743  309  -7.7    0.0  44  неравномерный
сухой снег
100% 
09 18.02.17 330 (СЗ) 3-4  20000 м    9/9 600 м 
[Sc]
-5.7 -7.9 84 -8  995.2  745  307           
12 18.02.17 310 (СЗ) 3-4  20000 м    6/0 верхняя 
[Ci fib]
-5.6 -8.8 78 -8  997.4  2.2  746  308           
15 18.02.17 240 (ЮЗ) 1-2  20000 м    1/0 верхняя 
[Ci fib]
-8.3 -9.8 89 -8  999.7  2.3  748  312      0.0     
18 18.02.17 240 (ЮЗ) 2-3  50000 м    ясно 
-11.1 -12.5 89 -13  1000.7  749  316    -4.7       
21 18.02.17 210 (ЮЗ) 1-3  н/о    н/о 
-15 -16.9 85 -15  1000.2  -0.5  748  321           
00 19.02.17 220 (ЮЗ) 1-2  н/о    н/о 
-10.6 -12.2 88 -10  998.8  -0.5  747  314           
03 19.02.17 250 (З) 1-3  н/о    н/о 
-12.1 -13.7 88 -12  997.7  -1.1  747  316  -15.2         
06 19.02.17 270 (З) 2-3  20000 м  [диам. изморози 6 мм]  1/1 600 м 
[Sc]
-13.5 -15.3 86 -16  996.9  -0.8  746  318  -15.2    0.4  45  неравномерный
сухой снег
100% 
09 19.02.17 220 (ЮЗ) 1-2  20000 м  [диам. изморози 6 мм]  ясно 
-10.6 -12.5 86 -10  996.4  -0.5  746  314           
12 19.02.17 240 (ЮЗ) 1-1  20000 м  [диам. изморози 6 мм]  6/0 верхняя 
[Ci fib]
-8.7 -11.2 82 -8  994.9  -1.4  745  311           
15 19.02.17 250 (З) 2-3  20000 м    8/1 600 м верхняя 
[Sc|Ci fib]
-12.7 -14.4 87 -15  993.5  -1.4  743  315      0.4     
18 19.02.17 310 (СЗ) 2-2  50000 м    3/0 верхняя 
[Ci fib]
-15 -16.3 90 -17  992.4  -1.1  743  318    -8.3       
21 19.02.17 250 (З) 2-2  н/о    н/о 
-17 -19 84 -19  991.3  742  320           
00 20.02.17 330 (СЗ) 3-3  н/о    н/о 
-12.5 -14.1 88 -16  989.5  -1.8  740  314           
03 20.02.17 260 (З) 2-3  н/о    н/о 
-17.3 -19.5 83 -20  990.1  0.6  741  320           
Время (UTC), дата Ветер
(°,м/с) 
Видим.   Явления Облачность Т
(°С)
Тd
(°С)
f(%) Тe
(°С)
Pmin
(гПа)
dP
(гПа)
Po
(мм)
O2
(г/м3)
Тmin Tmax R s Состояние
почвы

Для получения пояснительной информации подведите курсор к названию столбца.

ПОГОДА в Ковде - архив

Всё, что Вы хотите узнать о погоде в Ковде - удобно и подробно!

Выберите нужную дату (начиная с 1 января 2015* года) и нажмите кнопку "Найти".
Будут отображены архивные сводки погоды по пункту Ковда, начиная с указанной даты.


Отображать данные в формате CSV (для использования в таблицах Excel)


Внимание! Наш архив погоды предназначен исключительно для личного некоммерческого использования в познавательных целях. Если Вам необходимы официальные справки о состоянии погоды (для производственных, юридических, коммерческих и т.п. целей), обращайтесь в органы Росгидромета.

*Примечание: данная дата относится к архиву по метеостанциям СССР (Россия, СНГ, Балтия).
Архив по метеостанциям Зарубежной Европы и Азии (кроме Китая) хранится 10 дней, по другим регионам земного шара (Китай, Африка, Америка, Австралия, Океания) - 1 день.

Ковда - район местоположения метеостанции


Название, широта, долгота, высота метеостанции:
Ковда 66.7°ш. 32.9°д. 18 м над ур. моря [Российская Федерация]

Дополнительная информация

В oтличие oт бoльшинства пoгoдных сайтoв мы публикуем пoдрoбную метеoинфoрмацию в детальнoм прoфессиoнальнoм фoрмате.

Характеристики температуры и влажнoсти вoздуха измеряются на высoте 2 м в тени вдали oт зданий и деревьев.
Скoрoсть ветра измеряется на высoте 10 м (на урoвне рoста челoвека скoрoсть ветра ниже в 1.5-2 раза). Если метеoстанция нахoдится в гoрoде или в лесу, тo скoрoсть ветра занижена на 2-4 м/с пo сравнению с oткрытым местoм. Скoрoсть ветра над акватoриями крупных рек и oзёр, а также на вершинах хoлмoв на 2-5 м/с выше, чем в oбычных услoвиях.
Атмoсфернoе давление в разных тoчках местнoсти мoжет значительнo oтличаться oт давления на метеoстанции, в зависимoсти oт услoвий рельефа (при пoдъёме на 10 м давление пoнижается примернo на 1 мм рт.ст.).